Dades meteomassalio
Diari Summary for Octubre 21, 2017 Units:  English    Metric   Both
« Previous Day
Next Day »
Diari Semanal Mensual Anual Personalitzat
  Maxima: Minima: Mijana:
Temperatura: TemperatureC °F 7.8 °F 15.5 °F
Rosada: DewpointC °F 6.4 °F 10 °F
Humitat: Humidity % 49 % 72 %
Velocitat del vent: WindSpeedKMH mph 0.0 mph 10.4 mph
Racha vent: WindSpeedGustKMH mph - -
Vent:- - WSW
Pressio: PressurehPa in 1021.9 in -
Pluja: 0.0 in    
Historical Graphs
 
 
Tabular Data for Octubre 21, 2017
Time Temperature Dew Point Pressure Wind Wind Speed Wind Gust Humidity Rainfall Rate (Hourly) solar Conditions
TemperatureC °F DewpointC °F PressurehPa in Calm     Humidity % HourlyPrecipMM in SolarRadiationWatts/m^2 W/m2 Conditions
00:00 10.6 °F 7.4 °F 1023.2 in Calm     81 % 0.0 in 0.0 W/m2 CLR
00:05 10.6 °F 7.4 °F 1023.2 in Calm     81 % 0.0 in 0.0 W/m2 CLR
00:10 10.6 °F 7.6 °F 1023.2 in Calm     82 % 0.0 in 0.0 W/m2 CLR
00:15 10.6 °F 7.6 °F 1023.2 in Calm     82 % 0.0 in 0.0 W/m2 CLR
00:20 10.6 °F 7.6 °F 1023.2 in Calm     82 % 0.0 in 0.0 W/m2 CLR
00:25 10.6 °F 7.6 °F 1023.2 in Calm     82 % 0.0 in 0.0 W/m2 CLR
00:30 10.6 °F 7.8 °F 1023.2 in Calm     83 % 0.0 in 0.0 W/m2 CLR
00:35 10.6 °F 7.8 °F 1023.2 in Calm     83 % 0.0 in 0.0 W/m2 CLR
00:40 10.6 °F 7.8 °F 1023.2 in Calm     83 % 0.0 in 0.0 W/m2 CLR
00:45 10.6 °F 7.9 °F 1023.2 in Calm     84 % 0.0 in 0.0 W/m2 CLR
00:50 10.6 °F 7.9 °F 1023.2 in Calm     84 % 0.0 in 0.0 W/m2 CLR
00:55 10.6 °F 8.1 °F 1023.2 in Calm     85 % 0.0 in 0.0 W/m2 CLR
01:00 10.0 °F 7.6 °F 1023.2 in Calm     85 % 0.0 in 0.0 W/m2 CLR
01:05 10.0 °F 7.6 °F 1023.2 in Calm     85 % 0.0 in 0.0 W/m2 CLR
01:10 10.0 °F 7.6 °F 1023.2 in Calm     85 % 0.0 in 0.0 W/m2 CLR
01:15 10.0 °F 7.6 °F 1023.2 in Calm     85 % 0.0 in 0.0 W/m2 CLR
01:20 10.0 °F 7.8 °F 1023.6 in Calm     86 % 0.0 in 0.0 W/m2 CLR
01:25 10.0 °F 7.8 °F 1023.6 in Calm     86 % 0.0 in 0.0 W/m2 CLR
01:30 10.0 °F 7.8 °F 1023.2 in Calm     86 % 0.0 in 0.0 W/m2 CLR
01:35 10.0 °F 7.8 °F 1023.6 in Calm     86 % 0.0 in 0.0 W/m2 CLR
01:40 10.0 °F 7.9 °F 1023.2 in Calm     87 % 0.0 in 0.0 W/m2 CLR
01:46 10.0 °F 7.9 °F 1023.2 in Calm     87 % 0.0 in 0.0 W/m2 CLR
01:51 10.0 °F 7.9 °F 1023.2 in Calm     87 % 0.0 in 0.0 W/m2 CLR
01:56 10.0 °F 7.9 °F 1023.2 in Calm     87 % 0.0 in 0.0 W/m2 CLR
02:01 10.0 °F 7.8 °F 1023.2 in Calm     86 % 0.0 in 0.0 W/m2 CLR
02:06 9.4 °F 7.4 °F 1023.2 in Calm     87 % 0.0 in 0.0 W/m2 CLR
02:11 9.4 °F 7.2 °F 1023.6 in Calm     86 % 0.0 in 0.0 W/m2 CLR
02:16 9.4 °F 7.2 °F 1023.2 in Calm     86 % 0.0 in 0.0 W/m2 CLR
02:21 9.4 °F 7.4 °F 1023.2 in Calm     87 % 0.0 in 0.0 W/m2 CLR
02:26 9.4 °F 7.4 °F 1023.2 in Calm     87 % 0.0 in 0.0 W/m2 CLR
02:31 9.4 °F 7.4 °F 1023.2 in Calm     87 % 0.0 in 0.0 W/m2 CLR
02:36 9.4 °F 7.6 °F 1023.2 in Calm     88 % 0.0 in 0.0 W/m2 CLR
02:41 9.4 °F 7.4 °F 1023.6 in Calm     87 % 0.0 in 0.0 W/m2 CLR
02:46 9.4 °F 7.4 °F 1023.6 in Calm     87 % 0.0 in 0.0 W/m2 CLR
02:51 9.4 °F 7.4 °F 1023.2 in Calm     87 % 0.0 in 0.0 W/m2 CLR
02:56 8.9 °F 6.8 °F 1023.6 in Calm     87 % 0.0 in 0.0 W/m2 CLR
03:01 8.9 °F 7.0 °F 1023.6 in Calm     88 % 0.0 in 0.0 W/m2 CLR
03:06 8.9 °F 6.8 °F 1023.6 in Calm     87 % 0.0 in 0.0 W/m2 CLR
03:11 8.9 °F 7.0 °F 1023.2 in Calm     88 % 0.0 in 0.0 W/m2 CLR
03:16 8.9 °F 7.0 °F 1023.2 in Calm     88 % 0.0 in 0.0 W/m2 CLR
03:21 9.4 °F 7.6 °F 1023.2 in Calm     88 % 0.0 in 0.0 W/m2 CLR
03:26 9.4 °F 7.6 °F 1023.2 in Calm     88 % 0.0 in 0.0 W/m2 CLR
03:31 9.4 °F 7.6 °F 1023.2 in Calm     88 % 0.0 in 0.0 W/m2 CLR
03:36 8.9 °F 7.0 °F 1023.2 in Calm     88 % 0.0 in 0.0 W/m2 CLR
03:41 9.4 °F 7.7 °F 1023.2 in Calm     89 % 0.0 in 0.0 W/m2 CLR
03:46 9.4 °F 7.7 °F 1023.2 in Calm     89 % 0.0 in 0.0 W/m2 CLR
03:51 9.4 °F 7.7 °F 1023.2 in Calm     89 % 0.0 in 0.0 W/m2 CLR
03:56 9.4 °F 7.7 °F 1023.2 in Calm     89 % 0.0 in 0.0 W/m2 CLR
04:01 9.4 °F 7.7 °F 1023.2 in Calm     89 % 0.0 in 0.0 W/m2 CLR
04:06 9.4 °F 7.7 °F 1023.2 in Calm     89 % 0.0 in 0.0 W/m2 CLR
04:11 8.9 °F 7.2 °F 1022.9 in Calm     89 % 0.0 in 0.0 W/m2 CLR
04:16 8.9 °F 7.2 °F 1023.2 in Calm     89 % 0.0 in 0.0 W/m2 CLR
04:21 8.9 °F 7.2 °F 1022.9 in Calm     89 % 0.0 in 0.0 W/m2 CLR
04:26 8.9 °F 7.3 °F 1022.9 in Calm     90 % 0.0 in 0.0 W/m2 CLR
04:31 8.9 °F 7.3 °F 1022.9 in Calm     90 % 0.0 in 0.0 W/m2 CLR
04:36 8.9 °F 7.3 °F 1022.9 in Calm     90 % 0.0 in 0.0 W/m2 CLR
04:41 8.9 °F 7.3 °F 1022.9 in Calm     90 % 0.0 in 0.0 W/m2 CLR
04:46 8.9 °F 7.3 °F 1022.9 in Calm     90 % 0.0 in 0.0 W/m2 CLR
04:51 8.9 °F 7.3 °F 1022.9 in Calm     90 % 0.0 in 0.0 W/m2 CLR
04:56 8.9 °F 7.3 °F 1022.9 in Calm     90 % 0.0 in 0.0 W/m2 CLR
05:01 8.9 °F 7.3 °F 1022.6 in Calm     90 % 0.0 in 0.0 W/m2 CLR
05:06 8.9 °F 7.3 °F 1022.6 in Calm     90 % 0.0 in 0.0 W/m2 CLR
05:13 8.9 °F 7.3 °F 1022.9 in Calm     90 % 0.0 in 0.0 W/m2 CLR
05:20 8.9 °F 7.3 °F 1022.6 in Calm     90 % 0.0 in 0.0 W/m2 CLR
05:21 8.9 °F 7.3 °F 1022.6 in Calm     90 % 0.0 in 0.0 W/m2 CLR
05:22 8.9 °F 7.5 °F 1022.6 in Calm     91 % 0.0 in 0.0 W/m2 CLR
05:25 8.9 °F 7.3 °F 1022.9 in Calm     90 % 0.0 in 0.0 W/m2 CLR
05:27 8.3 °F 6.8 °F 1022.9 in Calm     90 % 0.0 in 0.0 W/m2 CLR
05:28 8.3 °F 6.8 °F 1022.9 in Calm     90 % 0.0 in 0.0 W/m2 CLR
05:29 8.3 °F 6.8 °F 1022.9 in Calm     90 % 0.0 in 0.0 W/m2 CLR
05:34 8.3 °F 6.8 °F 1022.6 in Calm     90 % 0.0 in 0.0 W/m2 CLR
05:39 8.3 °F 6.8 °F 1022.9 in Calm     90 % 0.0 in 0.0 W/m2 CLR
05:44 8.3 °F 6.8 °F 1022.9 in Calm     90 % 0.0 in 0.0 W/m2 CLR
05:49 8.3 °F 6.9 °F 1022.9 in Calm     91 % 0.0 in 0.0 W/m2 CLR
05:54 8.3 °F 6.9 °F 1022.9 in Calm     91 % 0.0 in 0.0 W/m2 CLR
05:59 8.3 °F 6.9 °F 1022.9 in Calm     91 % 0.0 in 0.0 W/m2 CLR
06:04 8.3 °F 6.9 °F 1022.9 in Calm     91 % 0.0 in 0.0 W/m2 CLR
06:09 7.8 °F 6.4 °F 1022.9 in Calm     91 % 0.0 in 0.0 W/m2 CLR
06:14 7.8 °F 6.4 °F 1022.9 in Calm     91 % 0.0 in 0.0 W/m2 CLR
06:19 7.8 °F 6.4 °F 1023.2 in Calm     91 % 0.0 in 0.0 W/m2 CLR
06:24 7.8 °F 6.4 °F 1023.2 in Calm     91 % 0.0 in 0.0 W/m2 CLR
06:29 8.3 °F 6.9 °F 1023.2 in Calm     91 % 0.0 in 0.0 W/m2 CLR
06:34 8.3 °F 6.9 °F 1023.2 in Calm     91 % 0.0 in 0.0 W/m2 CLR
06:39 8.3 °F 6.9 °F 1023.2 in Calm     91 % 0.0 in 0.0 W/m2 CLR
06:44 8.3 °F 6.9 °F 1023.2 in Calm     91 % 0.0 in 0.0 W/m2 CLR
06:49 8.3 °F 6.9 °F 1023.2 in Calm     91 % 0.0 in 0.0 W/m2 CLR
06:54 8.3 °F 7.1 °F 1023.2 in Calm     92 % 0.0 in 0.0 W/m2 CLR
06:59 8.3 °F 6.9 °F 1023.6 in Calm     91 % 0.0 in 0.0 W/m2 CLR
07:04 8.3 °F 6.9 °F 1023.6 in Calm     91 % 0.0 in 0.0 W/m2 CLR
07:10 8.3 °F 6.9 °F 1023.6 in Calm     91 % 0.0 in 0.0 W/m2 CLR
07:15 8.3 °F 6.9 °F 1023.6 in Calm     91 % 0.0 in 0.0 W/m2 CLR
07:20 8.3 °F 6.9 °F 1023.6 in Calm     91 % 0.0 in 0.0 W/m2 CLR
07:25 8.3 °F 7.1 °F 1023.6 in Calm     92 % 0.0 in 0.0 W/m2 CLR
07:30 8.3 °F 6.9 °F 1023.6 in Calm     91 % 0.0 in 0.0 W/m2 CLR
07:35 8.3 °F 6.9 °F 1023.6 in Calm     91 % 0.0 in 0.0 W/m2 CLR
07:40 8.3 °F 6.9 °F 1023.6 in Calm     91 % 0.0 in 0.0 W/m2 CLR
07:45 7.8 °F 6.4 °F 1023.6 in Calm     91 % 0.0 in 0.0 W/m2 CLR
07:50 7.8 °F 6.4 °F 1023.6 in Calm     91 % 0.0 in 0.0 W/m2 CLR
07:55 7.8 °F 6.6 °F 1023.9 in Calm     92 % 0.0 in 0.0 W/m2 CLR
08:00 7.8 °F 6.6 °F 1023.9 in Calm     92 % 0.0 in 0.0 W/m2 CLR
08:05 7.8 °F 6.4 °F 1023.9 in Calm     91 % 0.0 in 0.0 W/m2 CLR
08:11 8.3 °F 6.9 °F 1023.9 in Calm     91 % 0.0 in 0.0 W/m2 OVC
08:16 8.3 °F 6.9 °F 1023.9 in Calm     91 % 0.0 in 0.0 W/m2 OVC
08:21 8.3 °F 6.9 °F 1023.9 in Calm     91 % 0.0 in 5.0 W/m2 OVC
08:26 8.3 °F 7.1 °F 1023.9 in Calm     92 % 0.0 in 7.0 W/m2 BKN
08:31 8.3 °F 7.1 °F 1023.9 in Calm     92 % 0.0 in 11.0 W/m2 BKN
08:36 8.3 °F 7.1 °F 1024.3 in Calm     92 % 0.0 in 12.0 W/m2 BKN
08:41 8.3 °F 7.1 °F 1024.3 in Calm     92 % 0.0 in 14.0 W/m2 BKN
08:46 8.3 °F 6.9 °F 1024.3 in Calm     91 % 0.0 in 16.0 W/m2 BKN
08:51 8.3 °F 6.9 °F 1023.9 in Calm     91 % 0.0 in 18.0 W/m2 BKN
08:56 8.3 °F 7.1 °F 1024.3 in Calm     92 % 0.0 in 33.0 W/m2 BKN
09:01 8.3 °F 7.1 °F 1024.3 in Calm     92 % 0.0 in 47.0 W/m2 BKN
09:06 8.3 °F 7.1 °F 1024.3 in Calm     92 % 0.0 in 60.0 W/m2 SCT
09:11 8.3 °F 6.9 °F 1024.3 in Calm     91 % 0.0 in 72.0 W/m2 SCT
09:16 8.9 °F 7.5 °F 1024.3 in Calm     91 % 0.0 in 84.0 W/m2 FEW
09:21 8.9 °F 7.3 °F 1024.3 in Calm     90 % 0.0 in 91.0 W/m2 FEW
09:26 9.4 °F 7.9 °F 1024.3 in Calm     90 % 0.0 in 91.0 W/m2 CLR
09:31 9.4 °F 7.7 °F 1024.3 in Calm     89 % 0.0 in 105.0 W/m2 CLR
09:36 9.4 °F 7.6 °F 1024.3 in Calm     88 % 0.0 in 132.0 W/m2 CLR
09:41 10.0 °F 8.1 °F 1024.3 in Calm     88 % 0.0 in 128.0 W/m2 CLR
09:46 10.6 °F 8.5 °F 1024.3 in Calm     87 % 0.0 in 179.0 W/m2 CLR
09:51 10.6 °F 8.3 °F 1024.3 in Calm     86 % 0.0 in 200.0 W/m2 CLR
09:56 11.1 °F 8.5 °F 1024.3 in Calm     84 % 0.0 in 223.0 W/m2 CLR
10:01 11.1 °F 8.2 °F 1024.3 in Calm     82 % 0.0 in 239.0 W/m2 CLR
10:06 11.1 °F 7.9 °F 1024.3 in Calm     81 % 0.0 in 251.0 W/m2 CLR
10:11 11.7 °F 8.2 °F 1024.3 in Calm     79 % 0.0 in 265.0 W/m2 CLR
10:16 12.2 °F 8.5 °F 1024.6 in Calm     78 % 0.0 in 283.0 W/m2 CLR
10:21 12.8 °F 8.7 °F 1024.3 in Calm     76 % 0.0 in 294.0 W/m2 CLR
10:26 12.8 °F 8.1 °F 1024.3 in Calm     73 % 0.0 in 308.0 W/m2 CLR
10:31 13.3 °F 8.2 °F 1024.3 in Calm     71 % 0.0 in 320.0 W/m2 CLR
10:36 15.0 °F 9.3 °F 1024.3 in Calm     69 % 0.0 in 332.0 W/m2 CLR
10:41 15.0 °F 9.3 °F 1024.3 in SW 7.4 mph 7.4 mph 69 % 0.0 in 348.0 W/m2 CLR
10:46 15.0 °F 8.9 °F 1024.3 in SSW 16.7 mph 16.7 mph 67 % 0.0 in 359.0 W/m2 CLR
10:51 15.6 °F 9.0 °F 1024.3 in SSW 16.7 mph 16.7 mph 65 % 0.0 in 371.0 W/m2 CLR
10:56 16.1 °F 9.3 °F 1024.3 in SW 18.5 mph 18.5 mph 64 % 0.0 in 380.0 W/m2 CLR
11:01 18.3 °F 11.4 °F 1024.3 in WSW 11.3 mph 11.3 mph 64 % 0.0 in 396.0 W/m2 CLR
11:06 19.4 °F 12.2 °F 1024.3 in SSW 14.8 mph 14.8 mph 63 % 0.0 in 406.0 W/m2 CLR
11:11 20.0 °F 12.7 °F 1024.3 in SW 18.5 mph 18.5 mph 63 % 0.0 in 418.0 W/m2 CLR
11:16 20.0 °F 12.7 °F 1024.3 in SSW 14.8 mph 14.8 mph 63 % 0.0 in 427.0 W/m2 CLR
11:21 20.6 °F 13.0 °F 1024.3 in SW 20.9 mph 21.4 mph 62 % 0.0 in 439.0 W/m2 CLR
11:26 20.6 °F 13.3 °F 1024.3 in SW 20.9 mph 20.9 mph 63 % 0.0 in 452.0 W/m2 CLR
11:31 21.1 °F 13.6 °F 1024.3 in SW 18.5 mph 18.5 mph 62 % 0.0 in 461.0 W/m2 CLR
11:36 21.1 °F 13.3 °F 1024.3 in SW 16.7 mph 16.7 mph 61 % 0.0 in 469.0 W/m2 CLR
11:41 21.1 °F 13.6 °F 1024.3 in SW 16.7 mph 16.7 mph 62 % 0.0 in 480.0 W/m2 CLR
11:46 21.1 °F 13.1 °F 1024.3 in SW 18.5 mph 18.5 mph 60 % 0.0 in 490.0 W/m2 CLR
11:51 21.1 °F 13.1 °F 1024.3 in WSW 16.7 mph 16.7 mph 60 % 0.0 in 503.0 W/m2 CLR
11:56 21.1 °F 12.8 °F 1023.9 in SSW 16.7 mph 16.7 mph 59 % 0.0 in 517.0 W/m2 CLR
12:01 21.7 °F 13.6 °F 1023.9 in South 9.3 mph 9.3 mph 60 % 0.0 in 536.0 W/m2 CLR
12:06 21.7 °F 13.6 °F 1023.9 in SW 13.0 mph 13.0 mph 60 % 0.0 in 527.0 W/m2 CLR
12:11 22.2 °F 13.8 °F 1023.9 in West 16.7 mph 16.7 mph 59 % 0.0 in 536.0 W/m2 CLR
12:16 22.2 °F 13.8 °F 1023.9 in SW 27.8 mph 27.8 mph 59 % 0.0 in 543.0 W/m2 CLR
12:21 22.2 °F 13.8 °F 1023.9 in SW 29.0 mph 29.0 mph 59 % 0.0 in 550.0 W/m2 CLR
12:26 22.2 °F 13.8 °F 1023.9 in WSW 22.2 mph 22.2 mph 59 % 0.0 in 561.0 W/m2 CLR
12:31 22.8 °F 14.1 °F 1023.9 in SW 24.1 mph 24.1 mph 58 % 0.0 in 578.0 W/m2 CLR
12:36 23.3 °F 14.6 °F 1023.9 in SW 31.5 mph 31.5 mph 58 % 0.0 in 584.0 W/m2 CLR
12:41 23.3 °F 14.3 °F 1023.9 in SW 27.8 mph 27.8 mph 57 % 0.0 in 589.0 W/m2 CLR
12:46 23.3 °F 14.6 °F 1023.9 in SW 29.6 mph 29.6 mph 58 % 0.0 in 594.0 W/m2 CLR
12:51 23.9 °F 14.8 °F 1023.6 in SW 11.1 mph 11.1 mph 57 % 0.0 in 599.0 W/m2 CLR
12:56 23.9 °F 14.8 °F 1023.6 in WSW 25.7 mph 25.7 mph 57 % 0.0 in 566.0 W/m2 CLR
13:01 23.9 °F 14.8 °F 1023.9 in SW 27.8 mph 27.8 mph 57 % 0.0 in 582.0 W/m2 CLR
13:06 23.9 °F 14.8 °F 1023.9 in SW 24.1 mph 24.1 mph 57 % 0.0 in 524.0 W/m2 CLR
13:11 23.9 °F 14.6 °F 1023.9 in SSW 33.3 mph 33.3 mph 56 % 0.0 in 501.0 W/m2 CLR
13:16 23.9 °F 14.8 °F 1023.6 in SW 25.9 mph 25.9 mph 57 % 0.0 in 608.0 W/m2 CLR
13:26 23.9 °F 14.6 °F 1023.6 in WSW 25.9 mph 25.9 mph 56 % 0.0 in 605.0 W/m2 CLR
13:31 23.9 °F 14.3 °F 1023.2 in SW 18.5 mph 18.5 mph 55 % 0.0 in 606.0 W/m2 CLR
13:36 23.9 °F 14.3 °F 1023.2 in SW 22.5 mph 22.5 mph 55 % 0.0 in 606.0 W/m2 CLR
13:41 24.4 °F 14.2 °F 1023.2 in West 29.6 mph 29.6 mph 53 % 0.0 in 608.0 W/m2 CLR
13:46 24.4 °F 14.2 °F 1023.2 in SW 24.1 mph 24.1 mph 53 % 0.0 in 608.0 W/m2 CLR
13:51 25.0 °F 14.8 °F 1022.9 in SSW 18.5 mph 18.5 mph 53 % 0.0 in 612.0 W/m2 CLR
13:56 24.4 °F 13.9 °F 1022.9 in SW 25.9 mph 25.9 mph 52 % 0.0 in 612.0 W/m2 CLR
14:01 24.4 °F 13.9 °F 1022.9 in WSW 22.2 mph 22.2 mph 52 % 0.0 in 613.0 W/m2 CLR
14:06 24.4 °F 13.7 °F 1022.9 in West 18.5 mph 18.5 mph 51 % 0.0 in 621.0 W/m2 CLR
14:11 24.4 °F 13.9 °F 1022.6 in West 22.2 mph 22.2 mph 52 % 0.0 in 628.0 W/m2 CLR
14:17 24.4 °F 13.9 °F 1022.6 in WNW 22.2 mph 22.2 mph 52 % 0.0 in 640.0 W/m2 CLR
14:22 24.4 °F 13.7 °F 1022.6 in West 13.0 mph 13.0 mph 51 % 0.0 in 636.0 W/m2 CLR
14:27 24.4 °F 13.9 °F 1022.6 in SW 7.4 mph 7.4 mph 52 % 0.0 in 657.0 W/m2 CLR
14:32 24.4 °F 13.7 °F 1022.6 in West 11.3 mph 11.3 mph 51 % 0.0 in 670.0 W/m2 CLR
14:37 25.0 °F 14.2 °F 1022.2 in SW 13.0 mph 13.0 mph 51 % 0.0 in 694.0 W/m2 CLR
14:42 24.4 °F 13.9 °F 1022.2 in NW 12.9 mph 12.9 mph 52 % 0.0 in 642.0 W/m2 CLR
14:47 24.4 °F 13.7 °F 1022.2 in WNW 18.5 mph 18.5 mph 51 % 0.0 in 524.0 W/m2 CLR
14:52 24.4 °F 13.9 °F 1022.2 in WNW 9.3 mph 9.3 mph 52 % 0.0 in 485.0 W/m2 CLR
14:57 24.4 °F 13.9 °F 1022.2 in NW 13.0 mph 13.0 mph 52 % 0.0 in 675.0 W/m2 CLR
15:02 24.4 °F 13.9 °F 1022.2 in West 1.6 mph   52 % 0.0 in 621.0 W/m2 CLR
15:07 23.9 °F 13.1 °F 1022.2 in NW 17.7 mph 17.7 mph 51 % 0.0 in 605.0 W/m2 CLR
15:12 24.4 °F 13.7 °F 1022.2 in West 18.5 mph 18.5 mph 51 % 0.0 in 503.0 W/m2 CLR
15:17 24.4 °F 13.7 °F 1022.2 in West 14.5 mph 14.5 mph 51 % 0.0 in 478.0 W/m2 CLR
15:22 24.4 °F 13.7 °F 1022.2 in West 9.3 mph 9.3 mph 51 % 0.0 in 642.0 W/m2 CLR
15:27 24.4 °F 13.3 °F 1021.9 in West 24.1 mph 24.1 mph 50 % 0.0 in 325.0 W/m2 CLR
15:32 24.4 °F 13.7 °F 1022.2 in WSW 25.9 mph 25.9 mph 51 % 0.0 in 596.0 W/m2 CLR
15:37 25.0 °F 14.2 °F 1021.9 in West 9.3 mph 9.3 mph 51 % 0.0 in 404.0 W/m2 CLR
15:42 23.9 °F 13.1 °F 1021.9 in WNW 22.5 mph 22.5 mph 51 % 0.0 in 269.0 W/m2 CLR
15:47 23.9 °F 13.4 °F 1021.9 in West 13.0 mph 13.0 mph 52 % 0.0 in 496.0 W/m2 CLR
15:52 23.9 °F 13.1 °F 1021.9 in WSW 14.5 mph 14.5 mph 51 % 0.0 in 417.0 W/m2 CLR
15:57 23.9 °F 13.1 °F 1021.9 in West 13.0 mph 13.0 mph 51 % 0.0 in 512.0 W/m2 CLR
16:02 24.4 °F 13.7 °F 1021.9 in West 16.7 mph 16.7 mph 51 % 0.0 in 457.0 W/m2 CLR
16:07 24.4 °F 13.7 °F 1021.9 in West 11.1 mph 11.1 mph 51 % 0.0 in 436.0 W/m2 CLR
16:12 24.4 °F 13.7 °F 1021.9 in West 16.1 mph 16.1 mph 51 % 0.0 in 485.0 W/m2 CLR
16:17 25.0 °F 13.8 °F 1021.9 in WSW 18.5 mph 18.5 mph 50 % 0.0 in 334.0 W/m2 CLR
16:27 25.0 °F 13.6 °F 1021.9 in SW 9.3 mph 9.3 mph 49 % 0.0 in 211.0 W/m2 CLR
16:32 24.4 °F 13.3 °F 1021.9 in WSW 16.7 mph 16.7 mph 50 % 0.0 in 200.0 W/m2 CLR
16:37 24.4 °F 13.3 °F 1021.9 in West 11.1 mph 11.1 mph 50 % 0.0 in 218.0 W/m2 CLR
16:42 24.4 °F 13.3 °F 1021.9 in West 13.0 mph 13.0 mph 50 % 0.0 in 209.0 W/m2 CLR
16:47 23.9 °F 12.8 °F 1021.9 in Calm     50 % 0.0 in 209.0 W/m2 CLR
16:52 23.9 °F 12.8 °F 1021.9 in West 16.7 mph 16.7 mph 50 % 0.0 in 211.0 W/m2 CLR
16:57 23.9 °F 12.8 °F 1021.9 in WNW 16.7 mph 16.7 mph 50 % 0.0 in 193.0 W/m2 CLR
16:58 23.9 °F 12.8 °F 1021.9 in West 18.5 mph 18.5 mph 50 % 0.0 in 188.0 W/m2 CLR
17:03 23.9 °F 12.8 °F 1021.9 in West 14.8 mph 14.8 mph 50 % 0.0 in 178.0 W/m2 CLR
17:08 23.9 °F 12.8 °F 1021.9 in West 13.0 mph 13.0 mph 50 % 0.0 in 172.0 W/m2 CLR
17:13 23.9 °F 12.8 °F 1021.9 in West 16.7 mph 16.7 mph 50 % 0.0 in 162.0 W/m2 CLR
17:18 23.9 °F 12.8 °F 1021.9 in West 18.5 mph 18.5 mph 50 % 0.0 in 149.0 W/m2 CLR
17:23 23.3 °F 12.3 °F 1021.9 in West 16.7 mph 16.7 mph 50 % 0.0 in 130.0 W/m2 CLR
17:28 23.3 °F 12.3 °F 1021.9 in WSW 11.3 mph 11.3 mph 50 % 0.0 in 123.0 W/m2 CLR
17:33 23.3 °F 12.6 °F 1021.9 in WSW 3.7 mph   51 % 0.0 in 120.0 W/m2 CLR
17:38 23.3 °F 12.6 °F 1021.9 in West 16.7 mph 16.7 mph 51 % 0.0 in 132.0 W/m2 CLR
17:43 23.3 °F 12.9 °F 1021.9 in Calm     52 % 0.0 in 137.0 W/m2 CLR
17:48 23.3 °F 12.9 °F 1021.9 in Calm     52 % 0.0 in 174.0 W/m2 CLR
17:53 23.3 °F 12.6 °F 1021.9 in West 7.4 mph 7.4 mph 51 % 0.0 in 146.0 W/m2 CLR
17:58 23.3 °F 12.6 °F 1021.9 in West 16.1 mph 16.1 mph 51 % 0.0 in 118.0 W/m2 CLR
18:03 23.3 °F 12.6 °F 1021.9 in West 19.3 mph 19.3 mph 51 % 0.0 in 132.0 W/m2 CLR
18:08 23.3 °F 12.9 °F 1022.2 in WNW 18.5 mph 18.5 mph 52 % 0.0 in 79.0 W/m2 CLR
18:14 23.3 °F 12.9 °F 1022.2 in West 13.0 mph 13.0 mph 52 % 0.0 in 63.0 W/m2 FEW
18:18 23.3 °F 12.9 °F 1022.2 in West 13.0 mph 13.0 mph 52 % 0.0 in 51.0 W/m2 SCT
18:23 22.8 °F 12.7 °F 1022.2 in WNW 20.4 mph 20.4 mph 53 % 0.0 in 44.0 W/m2 BKN
18:29 22.8 °F 13.0 °F 1022.2 in West 17.7 mph 17.7 mph 54 % 0.0 in 33.0 W/m2 BKN
18:34 22.8 °F 13.3 °F 1022.2 in West 27.8 mph 27.8 mph 55 % 0.0 in 32.0 W/m2 BKN
18:39 22.2 °F 13.6 °F 1022.6 in West 20.4 mph 20.4 mph 58 % 0.0 in 32.0 W/m2 BKN
18:44 22.2 °F 14.3 °F 1022.6 in WSW 33.3 mph 33.3 mph 61 % 0.0 in 26.0 W/m2 BKN
18:49 21.7 °F 14.6 °F 1022.9 in WSW 31.5 mph 31.5 mph 64 % 0.0 in 23.0 W/m2 BKN
18:54 21.1 °F 14.3 °F 1022.9 in SW 31.5 mph 31.5 mph 65 % 0.0 in 16.0 W/m2 BKN
18:59 20.6 °F 14.0 °F 1023.2 in WSW 35.4 mph 35.4 mph 66 % 0.0 in 12.0 W/m2 BKN
19:04 20.0 °F 13.7 °F 1023.2 in SW 38.9 mph 38.9 mph 67 % 0.0 in 7.0 W/m2 BKN
19:09 20.0 °F 14.1 °F 1023.2 in SW 25.9 mph 25.9 mph 69 % 0.0 in 0.0 W/m2 OVC
19:14 19.4 °F 13.4 °F 1023.6 in WSW 43.4 mph 43.4 mph 68 % 0.0 in 0.0 W/m2 OVC
19:19 18.9 °F 13.1 °F 1023.6 in WSW 31.5 mph 31.5 mph 69 % 0.0 in 0.0 W/m2 OVC
19:24 18.9 °F 12.8 °F 1023.9 in WSW 42.6 mph 42.6 mph 68 % 0.0 in 0.0 W/m2 CLR
19:29 18.3 °F 12.3 °F 1024.3 in WSW 40.2 mph 40.2 mph 68 % 0.0 in 0.0 W/m2 CLR
19:34 18.3 °F 12.6 °F 1024.3 in WSW 31.5 mph 31.5 mph 69 % 0.0 in 0.0 W/m2 CLR
19:39 18.3 °F 12.6 °F 1024.3 in SW 24.1 mph 24.1 mph 69 % 0.0 in 0.0 W/m2 CLR
19:44 17.8 °F 12.0 °F 1024.3 in SSW 22.2 mph 22.2 mph 69 % 0.0 in 0.0 W/m2 CLR
19:49 17.8 °F 12.0 °F 1024.6 in SW 24.1 mph 24.1 mph 69 % 0.0 in 0.0 W/m2 CLR
19:50 17.8 °F 11.8 °F 1024.6 in SW 27.8 mph 27.8 mph 68 % 0.0 in 0.0 W/m2 CLR
19:55 17.8 °F 11.8 °F 1024.6 in WSW 31.5 mph 31.5 mph 68 % 0.0 in 0.0 W/m2 CLR
20:00 17.8 °F 11.8 °F 1024.6 in South 20.4 mph 20.4 mph 68 % 0.0 in 0.0 W/m2 CLR
20:05 17.2 °F 11.3 °F 1024.6 in SSW 24.1 mph 24.1 mph 68 % 0.0 in 0.0 W/m2 CLR
20:11 17.2 °F 11.3 °F 1024.9 in SW 29.6 mph 29.6 mph 68 % 0.0 in 0.0 W/m2 CLR
20:16 17.2 °F 11.3 °F 1024.9 in South 25.7 mph 25.7 mph 68 % 0.0 in 0.0 W/m2 CLR
20:21 17.2 °F 11.1 °F 1024.9 in WSW 27.8 mph 27.8 mph 67 % 0.0 in 0.0 W/m2 CLR
20:26 16.7 °F 10.5 °F 1025.3 in SW 20.4 mph 20.4 mph 67 % 0.0 in 0.0 W/m2 CLR
20:31 16.7 °F 10.5 °F 1025.3 in SSW 18.5 mph 18.5 mph 67 % 0.0 in 0.0 W/m2 CLR
20:36 16.7 °F 10.5 °F 1025.3 in SSW 22.2 mph 22.2 mph 67 % 0.0 in 0.0 W/m2 CLR
20:41 16.7 °F 10.5 °F 1025.6 in SW 14.8 mph 14.8 mph 67 % 0.0 in 0.0 W/m2 CLR
20:46 16.7 °F 10.5 °F 1025.6 in South 9.7 mph 9.7 mph 67 % 0.0 in 0.0 W/m2 CLR
20:51 16.7 °F 10.5 °F 1025.6 in South 5.6 mph   67 % 0.0 in 0.0 W/m2 CLR
20:56 16.7 °F 10.3 °F 1026.0 in Calm     66 % 0.0 in 0.0 W/m2 CLR
21:01 16.7 °F 10.3 °F 1026.0 in Calm     66 % 0.0 in 0.0 W/m2 CLR
21:06 16.7 °F 10.3 °F 1026.0 in SW 18.5 mph 18.5 mph 66 % 0.0 in 0.0 W/m2 CLR
21:11 16.7 °F 10.1 °F 1026.0 in SSW 24.1 mph 24.1 mph 65 % 0.0 in 0.0 W/m2 CLR
21:16 16.7 °F 10.1 °F 1026.3 in South 18.5 mph 18.5 mph 65 % 0.0 in 0.0 W/m2 CLR
21:21 16.7 °F 10.1 °F 1026.3 in SW 14.8 mph 14.8 mph 65 % 0.0 in 0.0 W/m2 CLR
21:26 16.7 °F 9.8 °F 1026.3 in SSW 18.5 mph 18.5 mph 64 % 0.0 in 0.0 W/m2 CLR
21:31 16.7 °F 9.8 °F 1026.3 in SSW 6.4 mph 6.4 mph 64 % 0.0 in 0.0 W/m2 CLR
21:36 16.7 °F 9.8 °F 1026.6 in SSW 11.1 mph 11.1 mph 64 % 0.0 in 0.0 W/m2 CLR
21:41 16.7 °F 9.6 °F 1026.6 in SSW 5.6 mph 5.6 mph 63 % 0.0 in 0.0 W/m2 CLR
21:46 16.7 °F 9.6 °F 1026.6 in SSW 7.4 mph 7.4 mph 63 % 0.0 in 0.0 W/m2 CLR
21:51 16.7 °F 9.6 °F 1026.6 in SW 18.5 mph 18.5 mph 63 % 0.0 in 0.0 W/m2 CLR
21:56 16.7 °F 9.6 °F 1026.6 in SW 16.7 mph 16.7 mph 63 % 0.0 in 0.0 W/m2 CLR
22:01 16.1 °F 9.1 °F 1026.6 in SW 18.5 mph 18.5 mph 63 % 0.0 in 0.0 W/m2 CLR
22:06 16.1 °F 9.1 °F 1026.6 in SW 13.0 mph 13.0 mph 63 % 0.0 in 0.0 W/m2 CLR
22:11 16.1 °F 9.1 °F 1027.0 in SSW 18.5 mph 18.5 mph 63 % 0.0 in 0.0 W/m2 CLR
22:16 16.1 °F 9.1 °F 1027.0 in SSW 18.5 mph 18.5 mph 63 % 0.0 in 0.0 W/m2 CLR
22:21 16.1 °F 9.1 °F 1027.0 in SW 31.5 mph 31.5 mph 63 % 0.0 in 0.0 W/m2 CLR
22:26 16.1 °F 9.1 °F 1027.3 in SW 24.1 mph 24.1 mph 63 % 0.0 in 0.0 W/m2 CLR
22:31 16.1 °F 9.1 °F 1027.3 in SSW 29.6 mph 29.6 mph 63 % 0.0 in 0.0 W/m2 CLR
22:36 16.1 °F 9.3 °F 1027.3 in SSW 25.9 mph 25.9 mph 64 % 0.0 in 0.0 W/m2 CLR
22:41 16.1 °F 9.3 °F 1027.3 in SSW 25.9 mph 25.9 mph 64 % 0.0 in 0.0 W/m2 CLR
22:46 16.1 °F 9.3 °F 1027.3 in SSW 29.6 mph 29.6 mph 64 % 0.0 in 0.0 W/m2 CLR
22:51 16.1 °F 9.3 °F 1027.3 in SSW 27.8 mph 27.8 mph 64 % 0.0 in 0.0 W/m2 CLR
22:56 16.1 °F 9.1 °F 1027.3 in SW 20.9 mph 20.9 mph 63 % 0.0 in 0.0 W/m2 CLR
23:01 16.1 °F 9.1 °F 1027.7 in South 27.8 mph 27.8 mph 63 % 0.0 in 0.0 W/m2 CLR
23:06 16.1 °F 9.1 °F 1027.7 in SW 27.4 mph 27.4 mph 63 % 0.0 in 0.0 W/m2 CLR
23:11 16.1 °F 9.1 °F 1027.7 in SSW 16.7 mph 16.7 mph 63 % 0.0 in 0.0 W/m2 CLR
23:13 16.1 °F 9.1 °F 1027.7 in SSW 18.5 mph 18.5 mph 63 % 0.0 in 0.0 W/m2 CLR
23:18 16.1 °F 9.1 °F 1028.0 in SSW 16.7 mph 16.7 mph 63 % 0.0 in 0.0 W/m2 CLR
23:23 15.6 °F 8.6 °F 1028.0 in SSW 14.8 mph 14.8 mph 63 % 0.0 in 0.0 W/m2 CLR
23:28 15.6 °F 8.6 °F 1028.0 in South 20.4 mph 20.4 mph 63 % 0.0 in 0.0 W/m2 CLR
23:33 15.6 °F 8.6 °F 1028.0 in SSW 18.5 mph 18.5 mph 63 % 0.0 in 0.0 W/m2 CLR
23:38 15.6 °F 8.6 °F 1028.0 in SSW 20.9 mph 20.9 mph 63 % 0.0 in 0.0 W/m2 CLR
23:43 15.6 °F 8.6 °F 1028.0 in SSW 18.5 mph 18.5 mph 63 % 0.0 in 0.0 W/m2 CLR
23:48 15.6 °F 8.6 °F 1028.0 in SSW 13.0 mph 13.0 mph 63 % 0.0 in 0.0 W/m2 CLR
23:53 15.6 °F 8.6 °F 1028.3 in SSW 14.8 mph 14.8 mph 63 % 0.0 in 0.0 W/m2 CLR
23:58 15.6 °F 8.6 °F 1028.3 in SSW 18.5 mph 18.5 mph 63 % 0.0 in 0.0 W/m2 CLR
Lo Temps de Massalio
Compliments of Weather Underground - 1.25 mb